Погода Земетчино

Погода Земетчино : погода сейчас, прогноз погоды и архив. Всё, что Вы хотите узнать о погоде Земетчино!

Поиск расширенной информации на нашем сайте:

Другие новости

Новости СМИ2

Главная страница сайта

Новости сайта

02.10.2013

Напоминаем, что на нашем новом сайте вы можете получить высокодетализированные прогнозы погоды по пунктам России, СНГ и мира (включающие важные для авиации метеовеличины, такие как направление и скорость ветра, видимость, явления погоды, количество и форма облачности, нижняя и верхняя граница облачности), а также ознакомиться с разнообразными материалами по авиационной метеорологии и подборкой полезных ссылок на эту тему.

Сайт Метеоцентр.Азия посвящён разработке технологий оптимизации авиаметеорологического обслуживания, включая проектирование и перспективное создание нескольких автоматизированных авиаметеорологических систем:
- система выпуска высокодетальных прогностических карт явлений погоды для нижнего воздушного пространства по России и ближнему зарубежью;
- система верификации прогнозов TAF (выпускаемых синоптиками официальных АМСГ РФ и ближнего зарубежья) и AUTOTAF (выпускаемых сайтом Метеоцентр.Азия) - выявление ошибок, онлайн-сопоставление с фактической погодой METAR, автоматическое внесение коррективов в прогнозы при резком отклонении фактической погоды от прогноза, подсчёт оправдываемости прогнозов по элементам и в целом;
- система обработки, анализа и отображения авиаметеорологической информации для применения провайдерами метеорологической информации.

Рекомендуем: http://audiozakon.com.ua/ кзот украины 2015 на русском языке.

Погода Земетчино - сегодня

Время (UTC), дата Ветер
(°,м/с) 
Видим.   Явления Облачность Т
(°С)
Тd
(°С)
f(%) Тe
(°С)
Pmin
(гПа)
dP
(гПа)
Po
(мм)
O2
(г/м3)
Тmin Tmax R s Состояние
почвы
09 26.04.17 220 (ЮЗ) 5-11  20000 м    9/3 600 м верхняя 
[Cu hum|Cs]
+15.6 -1.3 31 +15  1022.2  -1  755  288           
12 26.04.17 220 (ЮЗ) 8-13{14}  20000 м    9/5 600 м средняя, верхняя 
[Cu hum|Ac trans|Ci sp]
+17 -1 29 +16  1021.7  -0.6  755  286           
15 26.04.17 220 (ЮЗ) 7-11{14}  20000 м    8/0 верхняя 
[Ci fib]
+16.3 -0.8 31 +16  1020.4  -1.3  754  287    +17.5       
18 26.04.17 190 (Ю) 4{13}  10 км    6/0 верхняя 
[Ci fib]
+11.8 +0.7 46 +11  1021.2  0.5  754  291           
21 26.04.17 210 (ЮЗ) 10 км    ясно 
+9.9 +1.5 56 +9  1022  0.7  754  293           
00 27.04.17 210 (ЮЗ) 10 км    ясно 
+8.3 +1.9 64 +7  1022.2  0.1  755  295           
03 27.04.17 210 (ЮЗ) 20000 м    9/0 верхняя 
[Cs]
+7.9 +2 66 +6  1022.9  0.7  755  295  +7.6        сухая 
06 27.04.17 220 (ЮЗ) 7-11{15}  20000 м    8/0 верхняя 
[Ci ing]
+13.1 +0.9 43 +12  1023  0.4  755  290           
09 27.04.17 210 (ЮЗ) 8-12{14}  20000 м    8/0 верхняя 
[Ci ing]
+17.3 -1.5 28 +17  1022.4  -0.4  755  286           
12 27.04.17 220 (ЮЗ) 7-14{17}  20000 м    8/0 верхняя 
[Ci ing]
+19.7 -1.6 24 +20  1021.3  -0.9  754  284           
15 27.04.17 210 (ЮЗ) 7-12{14}  20000 м    9/0 средняя, верхняя 
[Ac und|Ci sp]
+19.4 +0.1 27 +19  1020  -1.3  753  283    +20.6       
18 27.04.17 190 (Ю) 4{12}  10 км    3/0 верхняя 
[Ci fib]
+14.2 -0.6 36 +14  1021.1  -1.3  754  289           
21 27.04.17 210 (ЮЗ) 5{11}  10 км    ясно 
+12.9 +0.2 42 +12  1021.5  0.3  754  290           
00 28.04.17 220 (ЮЗ) 6{11}  10 км    ясно 
+10.9 +1.9 54 +9  1021.9  0.3  754  292           
03 28.04.17 210 (ЮЗ) 20000 м    8/0 верхняя 
[Ci sp]
+10.5 +2.6 58 +9  1022.7  0.8  755  293  +9.6        сухая 
06 28.04.17 220 (ЮЗ) 5-10  20000 м    9/0 верхняя 
[Cs]
+16.3 +3.3 42 +16  1022.8  0.4  755  287           
09 28.04.17 210 (ЮЗ) 5-10{12}  20000 м    8/0 верхняя 
[Cs]
+21.7 +3.1 29 +22  1022.1  0.4  755  281           
12 28.04.17 210 (ЮЗ) 6-11{14}  20000 м    9/0 верхняя 
[Ci]
+22 +0.5 24 +22  1021.9  -0.2  755  281           
15 28.04.17 210 (ЮЗ) 4{11}  20000 м    9/0 верхняя 
[Ci]
+21.4 +0.8 25 +21  1021.3  -0.6  754  282    +22.5       
18 28.04.17 140 (ЮВ) 10 км    6/0 верхняя 
[Ci ing]
+14.2 +3.5 48 +15  1022.5  0.8  755  289           
21 28.04.17 190 (Ю) 10 км    8/0 верхняя 
[Ci ing]
+14.2 +3.4 48 +14  1023.2  0.7  756  289           
00 29.04.17 140 (ЮВ) 10 км    4/0 верхняя 
[Ci ing]
+9.5 +3.2 65 +10  1024.1  0.6  756  294           
03 29.04.17 150 (ЮВ) 20000 м    3/0 верхняя 
[Ci fib]
+8.5 +3.7 72 +8  1024.5  0.3  756  295  +6.9        сухая 
06 29.04.17 180 (Ю) 20000 м    3/0 верхняя 
[Ci fib]
+17 +0.1 32 +17  1024.5  0.5  757  287           
09 29.04.17 160 (Ю) 5-10{12}  20000 м    3/0 верхняя 
[Cc]
+20.9 +0.4 25 +21  1022.8  -1.4  756  283           
Время (UTC), дата Ветер
(°,м/с) 
Видим.   Явления Облачность Т
(°С)
Тd
(°С)
f(%) Тe
(°С)
Pmin
(гПа)
dP
(гПа)
Po
(мм)
O2
(г/м3)
Тmin Tmax R s Состояние
почвы

Для получения пояснительной информации подведите курсор к названию столбца.

ПОГОДА Земетчино - архив

Всё, что Вы хотите узнать о погоде Земетчино - удобно и подробно!

Выберите нужную дату (начиная с 1 января 2015* года) и нажмите кнопку "Найти".
Будут отображены архивные сводки погоды по пункту Земетчино, начиная с указанной даты.


Отображать данные в формате CSV (для использования в таблицах Excel)


Внимание! Наш архив погоды предназначен исключительно для личного некоммерческого использования в познавательных целях. Если Вам необходимы официальные справки о состоянии погоды (для производственных, юридических, коммерческих и т.п. целей), обращайтесь в органы Росгидромета.

*Примечание: данная дата относится к архиву по метеостанциям СССР (Россия, СНГ, Балтия).
Архив по метеостанциям Зарубежной Европы и Азии (кроме Китая) хранится 10 дней, по другим регионам земного шара (Китай, Африка, Америка, Австралия, Океания) - 1 день.

Земетчино - район местоположения метеостанции


Название, широта, долгота, высота метеостанции:
Земетчино 53.5°ш. 42.6°д. 131 м над ур. моря [Российская Федерация]

Дополнительная информация

В oтличие oт бoльшинства пoгoдных сайтoв мы публикуем пoдрoбную метеoинфoрмацию в детальнoм прoфессиoнальнoм фoрмате.

Характеристики температуры и влажнoсти вoздуха измеряются на высoте 2 м в тени вдали oт зданий и деревьев.
Скoрoсть ветра измеряется на высoте 10 м (на урoвне рoста челoвека скoрoсть ветра ниже в 1.5-2 раза). Если метеoстанция нахoдится в гoрoде или в лесу, тo скoрoсть ветра занижена на 2-4 м/с пo сравнению с oткрытым местoм. Скoрoсть ветра над акватoриями крупных рек и oзёр, а также на вершинах хoлмoв на 2-5 м/с выше, чем в oбычных услoвиях.
Атмoсфернoе давление в разных тoчках местнoсти мoжет значительнo oтличаться oт давления на метеoстанции, в зависимoсти oт услoвий рельефа (при пoдъёме на 10 м давление пoнижается примернo на 1 мм рт.ст.).